1 Minute Report
Date Time Wind Direction Wind Speed Wind Gust Wind Variable Altimeter Temperature Dewpoint Relative Humidity Visibility Ceiling Precip Present Weather Density Alt Wind Chill Heat Index
17/05/22 17:11 170 06 N/A N/A 29.97 57(F), 14(C) 54(F), 12(C) 88% 10 SCT015 BKN029 OVC075 P0001 N/A N/A 56 F N/A 6011
17/05/22 17:10 170 06 N/A N/A 29.97 57(F), 14(C) 54(F), 12(C) 88% 10 SCT015 BKN029 OVC075 P0001 N/A N/A 56 F N/A 6010
17/05/22 17:09 180 06 N/A N/A 29.97 57(F), 14(C) 54(F), 12(C) 88% 10 SCT015 BKN029 OVC075 P0001 N/A N/A 56 F N/A 6009
17/05/22 17:08 180 07 N/A N/A 29.97 57(F), 14(C) 54(F), 12(C) 88% 10 BKN029 BKN050 OVC075 P0001 N/A N/A 56 F N/A 6008
17/05/22 17:07 170 07 N/A N/A 29.97 57(F), 14(C) 54(F), 12(C) 88% 7 BKN029 BKN042 OVC075 P0001 N/A N/A 56 F N/A 6007
17/05/22 17:06 170 06 N/A N/A 29.97 57(F), 14(C) 54(F), 12(C) 88% 7 BKN029 BKN042 OVC075 P0001 N/A N/A 56 F N/A 6006
17/05/22 17:05 170 06 N/A N/A 29.97 57(F), 14(C) 54(F), 12(C) 88% 7 BKN029 BKN042 OVC075 P0001 N/A N/A 56 F N/A 6005
17/05/22 17:04 170 06 N/A N/A 29.97 57(F), 14(C) 54(F), 12(C) 88% 7 BKN029 BKN055 OVC075 P0001 N/A N/A 56 F N/A 6004
17/05/22 17:03 170 06 N/A N/A 29.97 57(F), 14(C) 54(F), 12(C) 88% 5 BKN029 BKN055 OVC075 N/A N/A N/A 56 F N/A 6003
17/05/22 17:02 170 07 N/A N/A 29.97 57(F), 14(C) 54(F), 12(C) 88% 5 SCT029 BKN048 OVC075 N/A N/A N/A 56 F N/A 6002
17/05/22 17:01 170 06 N/A N/A 29.97 57(F), 14(C) 54(F), 12(C) 88% 5 SCT016 BKN048 OVC075 N/A N/A N/A 56 F N/A 6001
17/05/22 17:00 170 06 N/A N/A 29.97 57(F), 14(C) 54(F), 12(C) 88% 5 SCT016 BKN065 OVC075 P0023 N/A N/A 56 F N/A 6000
17/05/22 16:59 180 06 N/A N/A 29.97 57(F), 14(C) 54(F), 12(C) 88% 5 SCT016 BKN065 OVC075 P0023 N/A N/A 56 F N/A 5999
17/05/22 16:58 180 05 N/A N/A 29.97 57(F), 14(C) 54(F), 12(C) 88% 4 SCT016 BKN075 OVC080 P0023 N/A N/A 56 F N/A 5998
17/05/22 16:57 180 05 N/A N/A 29.97 57(F), 14(C) 53(F), 12(C) 88% 4 SCT016 BKN060 OVC075 P0023 N/A N/A 56 F N/A 5997
17/05/22 16:56 180 05 N/A N/A 29.97 56(F), 13(C) 53(F), 12(C) 94% 4 SCT016 BKN060 OVC075 P0022 N/A N/A 55 F N/A 5996
17/05/22 16:55 180 05 N/A N/A 29.97 56(F), 13(C) 53(F), 12(C) 94% 4 SCT016 BKN075 OVC080 P0022 N/A N/A 55 F N/A 5995
17/05/22 16:54 170 05 N/A N/A 29.97 56(F), 13(C) 53(F), 12(C) 94% 5 SCT016 BKN075 OVC080 P0022 N/A N/A 55 F N/A 5994
17/05/22 16:53 170 05 N/A N/A 29.98 56(F), 13(C) 53(F), 12(C) 94% 5 SCT016 BKN075 OVC080 P0022 N/A N/A 55 F N/A 5993
17/05/22 16:52 170 05 N/A N/A 29.98 56(F), 13(C) 53(F), 12(C) 94% 4 SCT016 BKN070 OVC075 P0021 N/A N/A 55 F N/A 5992
17/05/22 16:51 180 05 N/A N/A 29.98 56(F), 13(C) 53(F), 12(C) 94% 4 SCT016 BKN070 OVC085 P0021 N/A N/A 55 F N/A 5991
17/05/22 16:50 170 05 N/A N/A 29.98 56(F), 13(C) 53(F), 12(C) 94% 4 SCT016 BKN080 OVC085 P0020 N/A N/A 55 F N/A 5990
17/05/22 16:49 170 06 N/A N/A 29.97 56(F), 13(C) 53(F), 12(C) 94% 4 SCT016 BKN065 OVC080 P0020 N/A N/A 55 F N/A 5989
17/05/22 16:48 170 06 N/A N/A 29.98 56(F), 13(C) 53(F), 12(C) 94% 4 SCT016 BKN065 OVC080 P0020 N/A N/A 55 F N/A 5988
17/05/22 16:47 170 05 N/A N/A 29.98 56(F), 13(C) 53(F), 12(C) 94% 4 SCT016 BKN032 OVC080 P0019 N/A N/A 55 F N/A 5987
17/05/22 16:46 170 05 N/A N/A 29.98 56(F), 13(C) 53(F), 12(C) 94% 3 SCT016 BKN032 OVC080 P0018 N/A N/A 55 F N/A 5986
17/05/22 16:45 170 05 N/A N/A 29.98 56(F), 13(C) 53(F), 12(C) 94% 3 SCT016 BKN032 OVC080 P0018 N/A N/A 55 F N/A 5985
17/05/22 16:44 170 04 N/A N/A 29.98 56(F), 13(C) 52(F), 11(C) 88% 3 SCT016 BKN032 OVC080 P0018 N/A N/A 56 F N/A 5984
17/05/22 16:43 170 05 N/A N/A 29.98 56(F), 13(C) 52(F), 11(C) 88% 3 SCT016 BKN022 OVC080 P0017 N/A N/A 55 F N/A 5983
17/05/22 16:42 160 06 N/A N/A 29.97 56(F), 13(C) 52(F), 11(C) 88% 3 SCT016 BKN026 OVC080 P0017 N/A N/A 55 F N/A 5982
17/05/22 16:41 160 06 N/A N/A 29.98 56(F), 13(C) 52(F), 11(C) 88% 3 SCT016 BKN022 OVC065 P0016 N/A N/A 55 F N/A 5981
17/05/22 16:40 160 06 N/A N/A 29.98 56(F), 13(C) 52(F), 11(C) 88% 3 SCT016 BKN022 OVC065 P0016 N/A N/A 55 F N/A 5980
17/05/22 16:39 160 04 N/A N/A 29.98 56(F), 13(C) 52(F), 11(C) 88% 3 BKN016 BKN022 OVC065 P0016 N/A N/A 56 F N/A 5979
17/05/22 16:38 170 05 N/A N/A 29.98 56(F), 13(C) 52(F), 11(C) 88% 3 BKN016 BKN022 OVC065 P0016 N/A N/A 55 F N/A 5978
17/05/22 16:37 160 06 N/A N/A 29.98 56(F), 13(C) 52(F), 11(C) 88% 3 BKN016 BKN022 OVC029 P0015 N/A N/A 55 F N/A 5977
17/05/22 16:36 150 06 N/A N/A 29.98 56(F), 13(C) 52(F), 11(C) 88% 3 BKN016 BKN022 OVC031 P0014 N/A N/A 55 F N/A 5976
17/05/22 16:35 160 06 N/A N/A 29.99 56(F), 13(C) 52(F), 11(C) 88% 3 BKN016 OVC024 P0013 N/A N/A 55 F N/A 5975
17/05/22 16:34 160 05 N/A N/A 29.99 56(F), 13(C) 52(F), 11(C) 88% 3 BKN016 OVC024 P0012 N/A N/A 55 F N/A 5974
17/05/22 16:33 160 04 N/A N/A 29.99 56(F), 13(C) 52(F), 11(C) 88% 2 1/2 BKN016 OVC024 P0012 N/A N/A 56 F N/A 5973
17/05/22 16:32 180 04 N/A N/A 29.99 56(F), 13(C) 52(F), 11(C) 88% 2 1/2 BKN018 OVC024 P0011 N/A N/A 56 F N/A 5972
17/05/22 16:31 180 05 N/A N/A 29.99 56(F), 13(C) 52(F), 11(C) 88% 2 SCT010 OVC018 P0010 N/A N/A 55 F N/A 5971
17/05/22 16:30 170 07 N/A N/A 29.99 56(F), 13(C) 52(F), 11(C) 88% 2 SCT010 OVC018 P0010 N/A N/A 54 F N/A 5970
17/05/22 16:29 170 07 N/A N/A 29.99 56(F), 13(C) 52(F), 11(C) 88% 1 3/4 SCT010 OVC018 P0010 N/A N/A 54 F N/A 5969
17/05/22 16:28 170 04 N/A N/A 29.99 56(F), 13(C) 52(F), 11(C) 88% 1 3/4 SCT010 OVC018 P0009 N/A N/A 56 F N/A 5968
17/05/22 16:27 170 03 N/A N/A 29.99 56(F), 13(C) 52(F), 11(C) 88% 2 SCT010 BKN018 OVC023 P0009 N/A N/A 56 F N/A 5967
17/05/22 16:26 160 03 N/A N/A 29.99 56(F), 13(C) 52(F), 11(C) 88% 2 SCT010 BKN018 OVC023 P0008 N/A N/A 56 F N/A 5966
17/05/22 16:25 000 00 N/A N/A 29.99 56(F), 13(C) 52(F), 11(C) 88% 2 SCT010 BKN018 OVC023 P0008 N/A N/A 56 F N/A 5965
17/05/22 16:24 000 00 N/A N/A 29.99 56(F), 13(C) 52(F), 11(C) 88% 2 BKN018 OVC023 P0007 N/A N/A 56 F N/A 5964
17/05/22 16:23 000 00 N/A N/A 29.99 56(F), 13(C) 52(F), 11(C) 88% 2 SCT010 BKN018 OVC023 P0007 N/A N/A 56 F N/A 5963
17/05/22 16:22 000 00 N/A N/A 29.99 57(F), 14(C) 52(F), 11(C) 82% 2 1/2 SCT018 BKN023 OVC028 P0006 N/A N/A 57 F N/A 5962
17/05/22 16:21 220 03 N/A N/A 29.99 57(F), 14(C) 52(F), 11(C) 82% 3 SCT018 BKN023 OVC028 P0006 N/A N/A 57 F N/A 5961
17/05/22 16:20 220 03 N/A N/A 29.99 57(F), 14(C) 52(F), 11(C) 82% 4 SCT018 BKN023 OVC035 P0004 N/A N/A 57 F N/A 5960
17/05/22 16:19 220 03 N/A N/A 29.99 57(F), 14(C) 52(F), 11(C) 82% 4 BKN023 OVC035 P0004 N/A N/A 57 F N/A 5959
17/05/22 16:18 210 04 N/A N/A 29.99 57(F), 14(C) 52(F), 11(C) 82% 5 BKN023 OVC035 P0003 N/A N/A 57 F N/A 5958
17/05/22 16:17 210 04 N/A N/A 29.99 57(F), 14(C) 52(F), 11(C) 82% 5 BKN023 OVC035 P0002 N/A N/A 57 F N/A 5957
17/05/22 16:16 220 03 N/A N/A 29.99 57(F), 14(C) 52(F), 11(C) 82% 5 BKN023 OVC035 P0002 N/A N/A 57 F N/A 5956
17/05/22 16:15 220 04 N/A N/A 29.99 57(F), 14(C) 52(F), 11(C) 82% 7 BKN023 BKN028 OVC035 P0002 N/A N/A 57 F N/A 5955
17/05/22 16:14 210 04 N/A N/A 29.99 57(F), 14(C) 52(F), 11(C) 82% 10 BKN023 BKN030 OVC035 P0002 N/A N/A 57 F N/A 5954
17/05/22 16:13 190 03 N/A N/A 29.99 57(F), 14(C) 52(F), 11(C) 82% 10 BKN023 BKN030 OVC035 P0001 N/A N/A 57 F N/A 5953
17/05/22 16:12 190 04 N/A N/A 29.98 57(F), 14(C) 52(F), 11(C) 82% 10 BKN023 BKN030 OVC035 N/A N/A N/A 57 F N/A 5952
17/05/22 16:11 190 05 N/A N/A 29.98 57(F), 14(C) 52(F), 11(C) 82% 10 BKN023 BKN030 OVC035 N/A N/A N/A 56 F N/A 5951
17/05/22 16:10 190 05 N/A N/A 29.98 57(F), 14(C) 52(F), 11(C) 82% 10 BKN023 BKN030 OVC035 N/A N/A N/A 56 F N/A 5950
17/05/22 16:09 190 04 N/A N/A 29.98 57(F), 14(C) 52(F), 11(C) 82% 10 BKN025 BKN030 OVC035 N/A N/A N/A 57 F N/A 5949
17/05/22 16:08 180 04 N/A N/A 29.98 57(F), 14(C) 52(F), 11(C) 82% 10 BKN025 BKN030 OVC035 N/A N/A N/A 57 F N/A 5948
17/05/22 16:07 190 05 N/A N/A 29.98 57(F), 14(C) 52(F), 11(C) 82% 10 BKN025 BKN030 OVC035 N/A N/A N/A 56 F N/A 5947
17/05/22 16:06 190 06 N/A N/A 29.98 57(F), 14(C) 52(F), 11(C) 82% 10 BKN025 BKN030 OVC035 N/A N/A N/A 56 F N/A 5946
17/05/22 16:05 190 05 N/A N/A 29.98 57(F), 14(C) 52(F), 11(C) 82% 10 SCT025 BKN030 OVC035 N/A N/A N/A 56 F N/A 5945
17/05/22 16:04 180 05 N/A N/A 29.98 57(F), 14(C) 52(F), 11(C) 82% 10 SCT025 BKN030 OVC035 N/A N/A N/A 56 F N/A 5944
17/05/22 16:03 170 05 N/A N/A 29.98 57(F), 14(C) 52(F), 11(C) 82% 10 SCT025 SCT030 OVC035 N/A N/A N/A 56 F N/A 5943
17/05/22 16:02 180 04 N/A N/A 29.98 57(F), 14(C) 52(F), 11(C) 82% 10 SCT025 SCT030 OVC035 N/A N/A N/A 57 F N/A 5942
17/05/22 16:01 190 04 N/A N/A 29.98 57(F), 14(C) 52(F), 11(C) 82% 10 SCT025 SCT030 OVC035 N/A N/A N/A 57 F N/A 5941
17/05/22 16:00 190 04 N/A N/A 29.98 57(F), 14(C) 52(F), 11(C) 82% 10 SCT025 SCT030 OVC035 N/A N/A N/A 57 F N/A 5940
17/05/22 15:59 190 05 N/A N/A 29.98 57(F), 14(C) 52(F), 11(C) 82% 10 SCT025 SCT030 OVC035 N/A N/A N/A 56 F N/A 5939
17/05/22 15:58 190 06 N/A N/A 29.98 57(F), 14(C) 52(F), 11(C) 82% 10 SCT025 SCT030 OVC035 N/A N/A N/A 56 F N/A 5938
17/05/22 15:57 200 05 N/A N/A 29.98 57(F), 14(C) 52(F), 11(C) 82% 10 SCT025 SCT030 OVC035 N/A N/A N/A 56 F N/A 5937
17/05/22 15:56 190 06 N/A N/A 29.98 57(F), 14(C) 52(F), 11(C) 82% 10 SCT028 OVC035 N/A N/A N/A 56 F N/A 5936
17/05/22 15:55 180 06 N/A N/A 29.98 57(F), 14(C) 52(F), 11(C) 82% 10 SCT030 OVC035 N/A N/A N/A 56 F N/A 5935
17/05/22 15:54 190 06 N/A N/A 29.98 57(F), 14(C) 52(F), 11(C) 82% 10 SCT030 OVC035 N/A N/A N/A 56 F N/A 5934
17/05/22 15:53 190 06 N/A N/A 29.98 57(F), 14(C) 52(F), 11(C) 82% 10 SCT030 OVC035 N/A N/A N/A 56 F N/A 5933
17/05/22 15:52 180 05 N/A N/A 29.98 57(F), 14(C) 52(F), 11(C) 82% 10 SCT030 OVC035 N/A N/A N/A 56 F N/A 5932
17/05/22 15:51 170 05 N/A N/A 29.98 57(F), 14(C) 52(F), 11(C) 82% 10 SCT030 OVC035 N/A N/A N/A 56 F N/A 5931
17/05/22 15:50 180 06 N/A N/A 29.98 57(F), 14(C) 52(F), 11(C) 82% 10 SCT030 OVC035 N/A N/A N/A 56 F N/A 5930
17/05/22 15:49 180 06 N/A N/A 29.98 57(F), 14(C) 52(F), 11(C) 82% 10 OVC035 N/A N/A N/A 56 F N/A 5929
17/05/22 15:48 180 06 N/A N/A 29.98 57(F), 14(C) 52(F), 11(C) 82% 10 OVC035 N/A N/A N/A 56 F N/A 5928
17/05/22 15:47 180 06 N/A N/A 29.98 57(F), 14(C) 52(F), 11(C) 82% 10 OVC035 N/A N/A N/A 56 F N/A 5927
17/05/22 15:46 170 05 N/A N/A 29.98 57(F), 14(C) 52(F), 11(C) 82% 10 OVC035 N/A N/A N/A 56 F N/A 5926
17/05/22 15:45 170 05 N/A N/A 29.98 57(F), 14(C) 52(F), 11(C) 82% 10 OVC035 N/A N/A N/A 56 F N/A 5925
17/05/22 15:44 180 05 N/A N/A 29.98 57(F), 14(C) 52(F), 11(C) 82% 10 OVC035 N/A N/A N/A 56 F N/A 5924
17/05/22 15:43 170 06 N/A N/A 29.97 57(F), 14(C) 52(F), 11(C) 82% 10 OVC035 N/A N/A N/A 56 F N/A 5923
17/05/22 15:42 170 06 N/A N/A 29.97 57(F), 14(C) 52(F), 11(C) 82% 10 OVC035 N/A N/A N/A 56 F N/A 5922
17/05/22 15:41 170 07 N/A N/A 29.97 57(F), 14(C) 52(F), 11(C) 82% 10 OVC035 N/A N/A N/A 56 F N/A 5921
17/05/22 15:40 170 06 N/A N/A 29.97 57(F), 14(C) 52(F), 11(C) 82% 10 OVC035 N/A N/A N/A 56 F N/A 5920
17/05/22 15:39 170 06 N/A N/A 29.98 57(F), 14(C) 52(F), 11(C) 82% 10 OVC035 N/A N/A N/A 56 F N/A 5919
17/05/22 15:38 170 07 N/A N/A 29.98 57(F), 14(C) 52(F), 11(C) 82% 10 OVC035 N/A N/A N/A 56 F N/A 5918
17/05/22 15:37 160 07 N/A N/A 29.98 57(F), 14(C) 52(F), 11(C) 82% 10 OVC035 N/A N/A N/A 56 F N/A 5917
17/05/22 15:36 160 06 N/A N/A 29.98 57(F), 14(C) 52(F), 11(C) 82% 10 OVC035 N/A N/A N/A 56 F N/A 5916
17/05/22 15:35 170 05 N/A N/A 29.98 57(F), 14(C) 52(F), 11(C) 82% 10 OVC035 N/A N/A N/A 56 F N/A 5915
17/05/22 15:34 170 06 N/A N/A 29.98 57(F), 14(C) 51(F), 11(C) 82% 10 OVC035 N/A N/A N/A 56 F N/A 5914
17/05/22 15:33 170 05 N/A N/A 29.98 56(F), 13(C) 51(F), 11(C) 88% 10 OVC035 N/A N/A N/A 55 F N/A 5913
17/05/22 15:32 180 05 N/A N/A 29.98 56(F), 13(C) 51(F), 11(C) 88% 10 OVC035 N/A N/A N/A 55 F N/A 5912
17/05/22 15:31 180 05 N/A N/A 29.98 56(F), 13(C) 51(F), 11(C) 88% 10 OVC035 N/A N/A N/A 55 F N/A 5911
17/05/22 15:30 170 04 N/A N/A 29.98 56(F), 13(C) 51(F), 11(C) 88% 10 OVC035 N/A N/A N/A 56 F N/A 5910
17/05/22 15:29 170 05 N/A N/A 29.98 56(F), 13(C) 51(F), 11(C) 88% 10 OVC035 N/A N/A N/A 55 F N/A 5909
17/05/22 15:28 170 05 N/A N/A 29.98 56(F), 13(C) 51(F), 11(C) 88% 10 OVC035 N/A N/A N/A 55 F N/A 5908
17/05/22 15:27 170 04 N/A N/A 29.98 56(F), 13(C) 51(F), 11(C) 88% 10 OVC035 N/A N/A N/A 56 F N/A 5907
17/05/22 15:26 180 05 N/A N/A 29.98 56(F), 13(C) 51(F), 11(C) 88% 10 OVC035 N/A N/A N/A 55 F N/A 5906
17/05/22 15:25 170 06 N/A 140V200 29.99 56(F), 13(C) 51(F), 11(C) 88% 10 OVC035 N/A N/A N/A 55 F N/A 5905
17/05/22 15:24 170 07 N/A N/A 29.99 56(F), 13(C) 51(F), 11(C) 88% 10 BKN032 OVC039 N/A N/A N/A 54 F N/A 5904
17/05/22 15:23 180 05 N/A N/A 29.99 56(F), 13(C) 51(F), 11(C) 88% 10 BKN032 OVC039 N/A N/A N/A 55 F N/A 5903
17/05/22 15:22 170 03 N/A N/A 29.99 56(F), 13(C) 50(F), 10(C) 82% 10 BKN032 OVC039 N/A N/A N/A 56 F N/A 5902
17/05/22 15:21 180 04 N/A N/A 29.99 56(F), 13(C) 50(F), 10(C) 82% 10 BKN032 OVC039 N/A N/A N/A 56 F N/A 5901
17/05/22 15:20 180 04 N/A N/A 29.99 56(F), 13(C) 50(F), 10(C) 82% 10 BKN032 OVC039 N/A N/A N/A 56 F N/A 5900
17/05/22 15:19 170 04 N/A N/A 29.99 56(F), 13(C) 50(F), 10(C) 82% 10 BKN032 OVC039 N/A N/A N/A 56 F N/A 5899
17/05/22 15:18 170 06 N/A N/A 29.99 56(F), 13(C) 51(F), 11(C) 88% 10 BKN032 OVC039 N/A N/A N/A 55 F N/A 5898
17/05/22 15:17 160 06 N/A N/A 29.99 56(F), 13(C) 51(F), 11(C) 88% 10 BKN032 OVC039 N/A N/A N/A 55 F N/A 5897
17/05/22 15:16 160 06 N/A N/A 29.99 56(F), 13(C) 51(F), 11(C) 88% 10 BKN032 OVC039 N/A N/A N/A 55 F N/A 5896
17/05/22 15:15 160 05 N/A N/A 29.99 56(F), 13(C) 51(F), 11(C) 88% 10 BKN032 OVC039 N/A N/A N/A 55 F N/A 5895
17/05/22 15:14 170 06 N/A N/A 29.99 56(F), 13(C) 51(F), 11(C) 88% 10 BKN032 OVC039 N/A N/A N/A 55 F N/A 5894
17/05/22 15:13 170 06 N/A N/A 29.99 56(F), 13(C) 51(F), 11(C) 88% 10 BKN032 OVC039 N/A N/A N/A 55 F N/A 5893
17/05/22 15:12 170 06 N/A N/A 29.99 56(F), 13(C) 51(F), 11(C) 88% 10 SCT032 OVC039 N/A N/A N/A 55 F N/A 5892
17/05/22 15:11 160 06 N/A N/A 29.99 56(F), 13(C) 51(F), 11(C) 88% 10 SCT032 OVC039 N/A N/A N/A 55 F N/A 5891